| time (UTC) | temp F | wind direction | speed MPH | gust MPH | rain 1hr in | rain 24hr in | rain mn in | humidity % | barometer mb |
| 20260504130655 | 56 | 160 | 0.0 | 1.0 | 0.00 | 0.00 | 0.00 | 70 | 1017.2 |
| 20260504130152 | 55 | 156 | 0.0 | 1.0 | 0.00 | 0.00 | 0.00 | 71 | 1017.2 |
| 20260504120116 | 46 | 178 | 0.0 | 0.0 | 0.00 | 0.00 | 0.00 | 90 | 1017.4 |
| 20260504110543 | 44 | 208 | 0.0 | 0.0 | 0.00 | 0.00 | 0.00 | 90 | 1016.9 |
| 20260504100505 | 44 | 209 | 0.0 | 0.0 | 0.00 | 0.00 | 0.00 | 89 | 1016.5 |
| 20260504081858 | 45 | 209 | 0.0 | 0.0 | 0.00 | 0.00 | 0.00 | 87 | 1016.7 |
| 20260504081355 | 45 | 209 | 0.0 | 0.0 | 0.00 | 0.00 | 0.00 | 87 | 1016.7 |
| 20260504080850 | 45 | 209 | 0.0 | 0.0 | 0.00 | 0.00 | 0.00 | 87 | 1016.6 |
| 20260504080348 | 46 | 209 | 0.0 | 0.0 | 0.00 | 0.00 | 0.00 | 87 | 1016.7 |
| 20260504070315 | 46 | 209 | 0.0 | 0.0 | 0.00 | 0.00 | 0.00 | 85 | 1017.0 |
| 20260504060235 | 48 | 211 | 0.0 | 0.0 | 0.00 | 0.00 | 0.00 | 80 | 1017.0 |
| 20260504050704 | 50 | 219 | 0.0 | 0.0 | 0.00 | 0.00 | 0.00 | 76 | 1017.4 |
| 20260504050200 | 50 | 219 | 0.0 | 0.0 | 0.00 | 0.00 | 0.00 | 75 | 1017.4 |
| 20260504045657 | 50 | 219 | 0.0 | 0.0 | 0.00 | 0.00 | 0.00 | 74 | 1017.5 |
| 20260504045152 | 50 | 219 | 0.0 | 0.0 | 0.00 | 0.00 | 0.00 | 74 | 1017.3 |
| 20260504044650 | 50 | 219 | 0.0 | 0.0 | 0.00 | 0.00 | 0.00 | 73 | 1017.4 |
| 20260504044146 | 50 | 219 | 0.0 | 0.0 | 0.00 | 0.00 | 0.00 | 73 | 1017.4 |
| 20260504043643 | 50 | 219 | 0.0 | 0.0 | 0.00 | 0.00 | 0.00 | 72 | 1017.2 |
| 20260504043141 | 51 | 219 | 0.0 | 1.0 | 0.00 | 0.00 | 0.00 | 72 | 1017.4 |
| 20260504042638 | 51 | 219 | 0.0 | 1.0 | 0.00 | 0.00 | 0.00 | 71 | 1017.4 |
| 20260504042135 | 51 | 219 | 0.0 | 0.0 | 0.00 | 0.00 | 0.00 | 70 | 1017.5 |
| 20260504041630 | 51 | 219 | 0.0 | 0.0 | 0.00 | 0.00 | 0.00 | 69 | 1017.6 |
| 20260504041127 | 51 | 219 | 0.0 | 0.0 | 0.00 | 0.00 | 0.00 | 69 | 1017.4 |
| 20260504040624 | 52 | 219 | 0.0 | 0.0 | 0.00 | 0.00 | 0.00 | 68 | 1017.6 |
| 20260504040121 | 52 | 219 | 0.0 | 0.0 | 0.00 | 0.00 | 0.00 | 68 | 1017.4 |
| 20260504035618 | 52 | 219 | 0.0 | 0.0 | 0.00 | 0.00 | 0.00 | 67 | 1017.5 |
| 20260504035114 | 53 | 219 | 0.0 | 0.0 | 0.00 | 0.00 | 0.00 | 67 | 1017.5 |
| 20260504034612 | 53 | 219 | 0.0 | 0.0 | 0.00 | 0.00 | 0.00 | 68 | 1017.5 |
| 20260504034108 | 53 | 219 | 0.0 | 0.0 | 0.00 | 0.00 | 0.00 | 67 | 1017.6 |
| 20260504033607 | 53 | 219 | 0.0 | 0.0 | 0.00 | 0.00 | 0.00 | 66 | 1017.6 |
| 20260504033104 | 53 | 219 | 0.0 | 0.0 | 0.00 | 0.00 | 0.00 | 66 | 1017.5 |
| 20260504032601 | 53 | 219 | 0.0 | 0.0 | 0.00 | 0.00 | 0.00 | 66 | 1017.6 |
| 20260504032058 | 54 | 219 | 0.0 | 0.0 | 0.00 | 0.00 | 0.00 | 65 | 1017.4 |
| 20260504031554 | 54 | 219 | 0.0 | 0.0 | 0.00 | 0.00 | 0.00 | 65 | 1017.5 |
| 20260504031050 | 54 | 219 | 0.0 | 0.0 | 0.00 | 0.00 | 0.00 | 65 | 1017.5 |
| 20260504030548 | 54 | 219 | 0.0 | 1.0 | 0.00 | 0.00 | 0.00 | 63 | 1017.5 |
| 20260504030044 | 55 | 219 | 0.0 | 0.0 | 0.00 | 0.00 | 0.00 | 63 | 1017.5 |
| 20260504025542 | 55 | 219 | 0.0 | 0.0 | 0.00 | 0.00 | 0.00 | 63 | 1017.3 |
| 20260504025038 | 55 | 219 | 0.0 | 0.0 | 0.00 | 0.00 | 0.00 | 62 | 1017.3 |
| 20260504024535 | 55 | 219 | 0.0 | 0.0 | 0.00 | 0.00 | 0.00 | 63 | 1017.3 |
| 20260504024032 | 55 | 219 | 0.0 | 0.0 | 0.00 | 0.00 | 0.00 | 63 | 1017.3 |
| 20260504023529 | 56 | 219 | 0.0 | 0.0 | 0.00 | 0.00 | 0.00 | 61 | 1017.2 |
| 20260504023024 | 56 | 220 | 0.0 | 0.0 | 0.00 | 0.00 | 0.00 | 58 | 1017.2 |
| 20260504022520 | 56 | 220 | 0.0 | 0.0 | 0.00 | 0.00 | 0.00 | 57 | 1017.2 |
| 20260504022017 | 56 | 220 | 0.0 | 1.0 | 0.00 | 0.00 | 0.00 | 58 | 1017.0 |
| 20260504021515 | 56 | 221 | 1.0 | 1.0 | 0.00 | 0.00 | 0.00 | 59 | 1017.0 |
| 20260504021012 | 56 | 220 | 0.0 | 0.0 | 0.00 | 0.00 | 0.00 | 57 | 1016.8 |
| 20260504020508 | 56 | 221 | 0.0 | 0.0 | 0.00 | 0.00 | 0.00 | 57 | 1016.8 |
| 20260504020005 | 57 | 221 | 0.0 | 1.0 | 0.00 | 0.00 | 0.00 | 57 | 1016.7 |
| 20260504015501 | 57 | 221 | 0.0 | 0.0 | 0.00 | 0.00 | 0.00 | 55 | 1016.8 |
| 20260504014957 | 57 | 220 | 0.0 | 0.0 | 0.00 | 0.00 | 0.00 | 55 | 1016.8 |
| 20260504014453 | 57 | 221 | 0.0 | 0.0 | 0.00 | 0.00 | 0.00 | 55 | 1016.9 |
| 20260504013950 | 57 | 221 | 0.0 | 0.0 | 0.00 | 0.00 | 0.00 | 55 | 1016.7 |
| 20260504013449 | 57 | 221 | 0.0 | 0.0 | 0.00 | 0.00 | 0.00 | 54 | 1016.9 |
| 20260504012944 | 57 | 221 | 0.0 | 0.0 | 0.00 | 0.00 | 0.00 | 52 | 1016.7 |
| 20260504012443 | 58 | 221 | 0.0 | 0.0 | 0.00 | 0.00 | 0.00 | 52 | 1016.6 |
| 20260504011940 | 58 | 221 | 0.0 | 0.0 | 0.00 | 0.00 | 0.00 | 52 | 1016.4 |
| 20260504011436 | 58 | 221 | 0.0 | 0.0 | 0.00 | 0.00 | 0.00 | 51 | 1016.4 |
| 20260504010932 | 59 | 221 | 0.0 | 0.0 | 0.00 | 0.00 | 0.00 | 50 | 1016.4 |
| 20260504010428 | 59 | 221 | 0.0 | 0.0 | 0.00 | 0.00 | 0.00 | 51 | 1016.3 |
| 20260504005925 | 59 | 221 | 0.0 | 0.0 | 0.00 | 0.00 | 0.00 | 47 | 1016.3 |
| 20260504005421 | 60 | 221 | 0.0 | 0.0 | 0.00 | 0.00 | 0.00 | 46 | 1016.3 |
| 20260504004919 | 60 | 221 | 0.0 | 0.0 | 0.00 | 0.00 | 0.00 | 44 | 1016.1 |
| 20260504004417 | 61 | 221 | 0.0 | 0.0 | 0.00 | 0.00 | 0.00 | 44 | 1016.2 |
| 20260504003913 | 61 | 221 | 0.0 | 0.0 | 0.00 | 0.00 | 0.00 | 44 | 1016.1 |
| 20260504003410 | 62 | 221 | 0.0 | 0.0 | 0.00 | 0.00 | 0.00 | 42 | 1015.9 |
| 20260504002906 | 62 | 221 | 0.0 | 0.0 | 0.00 | 0.00 | 0.00 | 40 | 1016.2 |
| 20260504002403 | 63 | 221 | 1.0 | 1.0 | 0.00 | 0.00 | 0.00 | 40 | 1016.2 |
| 20260504001901 | 63 | 221 | 0.0 | 1.0 | 0.00 | 0.00 | 0.00 | 38 | 1016.0 |
| 20260504001359 | 64 | 221 | 0.0 | 1.0 | 0.00 | 0.00 | 0.00 | 38 | 1016.1 |
| 20260504000855 | 64 | 221 | 1.0 | 1.0 | 0.00 | 0.00 | 0.00 | 36 | 1016.0 |
| 20260504000354 | 65 | 224 | 0.0 | 1.0 | 0.00 | 0.00 | 0.00 | 35 | 1016.1 |
| 20260503235849 | 65 | 227 | 0.0 | 1.0 | 0.00 | 0.00 | 0.00 | 34 | 1015.9 |
| 20260503235347 | 65 | 224 | 1.0 | 2.0 | 0.00 | 0.00 | 0.00 | 33 | 1016.0 |
| 20260503234844 | 66 | 171 | 2.0 | 2.0 | 0.00 | 0.00 | 0.00 | 37 | 1016.0 |
| 20260503234342 | 66 | 151 | 2.0 | 2.0 | 0.00 | 0.00 | 0.00 | 37 | 1016.1 |
| 20260503233839 | 66 | 154 | 1.0 | 2.0 | 0.00 | 0.00 | 0.00 | 36 | 1016.0 |
| 20260503233335 | 67 | 133 | 2.0 | 2.0 | 0.00 | 0.00 | 0.00 | 37 | 1015.9 |
| 20260503232832 | 67 | 223 | 0.0 | 2.0 | 0.00 | 0.00 | 0.00 | 36 | 1015.9 |
| 20260503232329 | 67 | 181 | 2.0 | 5.0 | 0.00 | 0.00 | 0.00 | 36 | 1015.9 |
| 20260503231827 | 68 | 164 | 2.0 | 3.0 | 0.00 | 0.00 | 0.00 | 36 | 1015.9 |
| 20260503231324 | 68 | 157 | 1.0 | 1.0 | 0.00 | 0.00 | 0.00 | 37 | 1016.1 |
| 20260503230820 | 68 | 142 | 0.0 | 1.0 | 0.00 | 0.00 | 0.00 | 36 | 1015.9 |
| 20260503230317 | 69 | 149 | 0.0 | 2.0 | 0.00 | 0.00 | 0.00 | 35 | 1015.9 |
| 20260503225815 | 70 | 160 | 1.0 | 2.0 | 0.00 | 0.00 | 0.00 | 35 | 1015.8 |
| 20260503225310 | 69 | 148 | 0.0 | 2.0 | 0.00 | 0.00 | 0.00 | 36 | 1016.0 |
| 20260503224807 | 70 | 98 | 3.0 | 7.0 | 0.00 | 0.00 | 0.00 | 35 | 1016.1 |
| 20260503224304 | 70 | 248 | 3.0 | 3.0 | 0.00 | 0.00 | 0.00 | 35 | 1015.9 |
| 20260503223802 | 70 | 142 | 1.0 | 2.0 | 0.00 | 0.00 | 0.00 | 34 | 1016.1 |
| 20260503223259 | 70 | 83 | 0.0 | 2.0 | 0.00 | 0.00 | 0.00 | 33 | 1016.1 |
| 20260503222755 | 71 | 191 | 3.0 | 3.0 | 0.00 | 0.00 | 0.00 | 33 | 1015.9 |
| 20260503222254 | 71 | 183 | 4.0 | 5.0 | 0.00 | 0.00 | 0.00 | 32 | 1016.0 |
| 20260503221751 | 71 | 226 | 4.0 | 8.0 | 0.00 | 0.00 | 0.00 | 32 | 1016.0 |
| 20260503221249 | 72 | 172 | 1.0 | 2.0 | 0.00 | 0.00 | 0.00 | 33 | 1015.8 |
| 20260503220745 | 73 | 170 | 1.0 | 1.0 | 0.00 | 0.00 | 0.00 | 31 | 1016.0 |
| 20260503220242 | 73 | 241 | 3.0 | 3.0 | 0.00 | 0.00 | 0.00 | 31 | 1016.1 |
| 20260503215739 | 71 | 167 | 0.0 | 1.0 | 0.00 | 0.00 | 0.00 | 32 | 1016.2 |
| 20260503215236 | 72 | 176 | 1.0 | 3.0 | 0.00 | 0.00 | 0.00 | 31 | 1016.1 |
| 20260503214734 | 71 | 236 | 2.0 | 3.0 | 0.00 | 0.00 | 0.00 | 33 | 1016.2 |
| 20260503214231 | 71 | 175 | 2.0 | 2.0 | 0.00 | 0.00 | 0.00 | 32 | 1016.0 |
| 20260503213729 | 71 | 179 | 2.0 | 8.0 | 0.00 | 0.00 | 0.00 | 32 | 1016.2 |
| 20260503213226 | 71 | 241 | 4.0 | 6.0 | 0.00 | 0.00 | 0.00 | 30 | 1016.2 |
| 20260503212723 | 70 | 101 | 1.0 | 3.0 | 0.00 | 0.00 | 0.00 | 35 | 1016.3 |
| 20260503212220 | 70 | 183 | 4.0 | 7.0 | 0.00 | 0.00 | 0.00 | 33 | 1016.3 |
| 20260503211718 | 71 | 193 | 4.0 | 5.0 | 0.00 | 0.00 | 0.00 | 34 | 1016.5 |
| 20260503211214 | 72 | 242 | 3.0 | 3.0 | 0.00 | 0.00 | 0.00 | 32 | 1016.2 |
| 20260503210709 | 72 | 179 | 1.0 | 5.0 | 0.00 | 0.00 | 0.00 | 31 | 1016.3 |
| 20260503210207 | 72 | 185 | 1.0 | 3.0 | 0.00 | 0.00 | 0.00 | 31 | 1016.4 |
| 20260503205703 | 71 | 194 | 1.0 | 2.0 | 0.00 | 0.00 | 0.00 | 31 | 1016.4 |
| 20260503205158 | 71 | 87 | 1.0 | 3.0 | 0.00 | 0.00 | 0.00 | 32 | 1016.4 |
| 20260503204655 | 70 | 208 | 3.0 | 5.0 | 0.00 | 0.00 | 0.00 | 33 | 1016.4 |
| 20260503204153 | 71 | 192 | 1.0 | 6.0 | 0.00 | 0.00 | 0.00 | 32 | 1016.6 |
| 20260503203649 | 71 | 173 | 1.0 | 6.0 | 0.00 | 0.00 | 0.00 | 31 | 1016.6 |
| 20260503203148 | 70 | 73 | 3.0 | 3.0 | 0.00 | 0.00 | 0.00 | 32 | 1016.7 |
| 20260503202644 | 71 | 70 | 3.0 | 5.0 | 0.00 | 0.00 | 0.00 | 32 | 1016.8 |
| 20260503202142 | 71 | 179 | 2.0 | 5.0 | 0.00 | 0.00 | 0.00 | 31 | 1016.8 |
| 20260503201640 | 70 | 205 | 2.0 | 2.0 | 0.00 | 0.00 | 0.00 | 33 | 1017.0 |
| 20260503201137 | 70 | 183 | 4.0 | 9.0 | 0.00 | 0.00 | 0.00 | 31 | 1016.9 |
| 20260503200633 | 71 | 192 | 2.0 | 5.0 | 0.00 | 0.00 | 0.00 | 33 | 1017.1 |
| 20260503200129 | 71 | 209 | 2.0 | 5.0 | 0.00 | 0.00 | 0.00 | 33 | 1017.1 |
| 20260503195627 | 68 | 194 | 4.0 | 6.0 | 0.00 | 0.00 | 0.00 | 33 | 1017.3 |
| 20260503195124 | 69 | 193 | 0.0 | 6.0 | 0.00 | 0.00 | 0.00 | 32 | 1017.4 |
| 20260503194621 | 69 | 202 | 3.0 | 5.0 | 0.00 | 0.00 | 0.00 | 33 | 1017.5 |
| 20260503194116 | 70 | 195 | 3.0 | 9.0 | 0.00 | 0.00 | 0.00 | 34 | 1017.6 |
| 20260503193613 | 70 | 6 | 3.0 | 3.0 | 0.00 | 0.00 | 0.00 | 31 | 1017.6 |
| 20260503193108 | 70 | 209 | 2.0 | 3.0 | 0.00 | 0.00 | 0.00 | 33 | 1017.7 |
| 20260503192604 | 70 | 120 | 1.0 | 3.0 | 0.00 | 0.00 | 0.00 | 33 | 1017.7 |
| 20260503192100 | 70 | 104 | 3.0 | 3.0 | 0.00 | 0.00 | 0.00 | 33 | 1017.7 |
| 20260503191557 | 68 | 187 | 0.0 | 3.0 | 0.00 | 0.00 | 0.00 | 33 | 1018.1 |
| 20260503191054 | 69 | 202 | 2.0 | 3.0 | 0.00 | 0.00 | 0.00 | 33 | 1018.2 |
| 20260503190551 | 70 | 193 | 2.0 | 3.0 | 0.00 | 0.00 | 0.00 | 30 | 1018.3 |
| 20260503190048 | 69 | 161 | 2.0 | 3.0 | 0.00 | 0.00 | 0.00 | 31 | 1018.4 |
| 20260503185544 | 69 | 151 | 1.0 | 5.0 | 0.00 | 0.00 | 0.00 | 30 | 1018.3 |
| 20260503185044 | 68 | 206 | 3.0 | 9.0 | 0.00 | 0.00 | 0.00 | 31 | 1018.3 |
| 20260503184540 | 68 | 107 | 3.0 | 5.0 | 0.00 | 0.00 | 0.00 | 35 | 1018.2 |
| 20260503184037 | 67 | 120 | 2.0 | 2.0 | 0.00 | 0.00 | 0.00 | 34 | 1018.4 |
| 20260503183534 | 69 | 203 | 4.0 | 5.0 | 0.00 | 0.00 | 0.00 | 33 | 1018.6 |
| 20260503183031 | 69 | 231 | 5.0 | 6.0 | 0.00 | 0.00 | 0.00 | 31 | 1018.7 |
| 20260503182529 | 68 | 172 | 2.0 | 3.0 | 0.00 | 0.00 | 0.00 | 35 | 1018.8 |
| 20260503182027 | 67 | 141 | 1.0 | 3.0 | 0.00 | 0.00 | 0.00 | 36 | 1018.8 |
| 20260503181524 | 68 | 221 | 2.0 | 2.0 | 0.00 | 0.00 | 0.00 | 33 | 1019.0 |
| 20260503181020 | 68 | 145 | 1.0 | 2.0 | 0.00 | 0.00 | 0.00 | 35 | 1019.0 |
| 20260503180518 | 68 | 135 | 0.0 | 3.0 | 0.00 | 0.00 | 0.00 | 34 | 1018.9 |
| 20260503180015 | 66 | 150 | 1.0 | 2.0 | 0.00 | 0.00 | 0.00 | 38 | 1018.7 |
| 20260503175512 | 67 | 128 | 1.0 | 6.0 | 0.00 | 0.00 | 0.00 | 34 | 1019.1 |
| 20260503175009 | 67 | 214 | 5.0 | 7.0 | 0.00 | 0.00 | 0.00 | 33 | 1018.9 |
| 20260503174506 | 67 | 135 | 1.0 | 2.0 | 0.00 | 0.00 | 0.00 | 36 | 1018.9 |
| 20260503174002 | 66 | 219 | 3.0 | 6.0 | 0.00 | 0.00 | 0.00 | 39 | 1018.9 |
| 20260503173457 | 66 | 211 | 1.0 | 5.0 | 0.00 | 0.00 | 0.00 | 38 | 1018.9 |
| 20260503172954 | 67 | 163 | 2.0 | 3.0 | 0.00 | 0.00 | 0.00 | 35 | 1018.9 |
| 20260503172452 | 66 | 153 | 2.0 | 3.0 | 0.00 | 0.00 | 0.00 | 35 | 1019.1 |
| 20260503171948 | 67 | 222 | 2.0 | 3.0 | 0.00 | 0.00 | 0.00 | 37 | 1019.1 |
| 20260503171445 | 65 | 131 | 0.0 | 2.0 | 0.00 | 0.00 | 0.00 | 37 | 1019.1 |
| 20260503170943 | 66 | 136 | 2.0 | 3.0 | 0.00 | 0.00 | 0.00 | 35 | 1019.5 |
| 20260503170438 | 66 | 78 | 0.0 | 6.0 | 0.00 | 0.00 | 0.00 | 37 | 1019.4 |
| 20260503150831 | 59 | 127 | 1.0 | 2.0 | 0.00 | 0.00 | 0.00 | 52 | 1019.9 |
| 20260503150327 | 59 | 128 | 0.0 | 2.0 | 0.00 | 0.00 | 0.00 | 54 | 1019.8 |
| 20260503140251 | 56 | 128 | 1.0 | 2.0 | 0.00 | 0.00 | 0.00 | 60 | 1019.6 |